[[{"header":{"parameterUnit":"m.s-1","parameterCategory":1,"la1":30.2991,"la2":30.254,"lo1":-89.0895,"lo2":-89.0444,"dy":0.0017,"dx":0.0017,"nx":28,"ny":28,"refTime":"2025-07-25T21:00:00:Z","depth":0,"parameterNumber":2,"parameterNumberName":"U-component_of_WINDS"},"data":[0,0,0,0,0,0,0,0,0,0,0,0,0,0,0,0,0,0,0,0,0,0,0,0,0,0,0,0,0,0,0,0,0,0,0,0,0,0,0,0,0,0,0,0,0,0,0,0,0,0,0,0,0,0,0,0,0,0,-1.2352,-1.2353,0,-1.2474,-1.2476,-1.2477,-1.2535,-1.2535,-1.2535,-1.2535,-1.2664,-1.2667,-1.267,0,0,0,0,0,0,0,0,0,0,0,0,0,-1.2171,-1.2174,-1.2352,-1.2353,-1.2355,-1.2474,-1.2476,-1.2478,-1.2535,-1.2535,-1.2535,-1.2535,-1.2662,-1.2667,-1.2671,0,0,0,0,0,0,0,0,0,0,0,0,0,-1.2267,-1.2175,-1.2352,-1.2398,-1.2403,-1.2474,-1.2476,-1.2478,-1.2535,-1.2535,-1.2535,-1.2535,-1.2661,-1.2666,-1.2671,-1.2706,0,0,-1.2687,-1.269,0,0,0,0,0,0,0,0,-1.2262,-1.2274,-1.239,-1.2395,-1.2401,-1.2489,-1.246,-1.2555,-1.2535,-1.2485,-1.2535,-1.2535,-1.2606,-1.2616,-1.2639,-1.2712,-1.2718,-1.2688,-1.2691,-1.2693,-1.2695,0,0,0,0,0,0,0,-1.2255,-1.2269,-1.2401,-1.2391,-1.2398,-1.2414,-1.2427,-1.2478,-1.2545,-1.2489,-1.2494,-1.2507,-1.2609,-1.2634,-1.2642,-1.272,-1.2688,-1.2692,-1.2696,-1.2698,-1.2828,-1.2828,0,0,0,0,0,0,-1.2241,-1.2263,-1.2397,-1.2404,-1.233,-1.2417,-1.2432,-1.2461,-1.2544,-1.2557,-1.2507,-1.251,-1.2625,-1.2636,-1.2647,-1.2694,-1.2693,-1.2698,-1.2701,-1.2828,-1.2828,-1.2828,0,0,0,0,0,0,-1.2236,-1.2252,-1.2392,-1.2335,-1.2354,-1.242,-1.2452,-1.2464,-1.2488,-1.2558,-1.257,-1.252,-1.2625,-1.264,-1.2691,-1.2699,-1.2701,-1.2705,-1.2827,-1.2828,-1.2828,-1.2787,0,0,0,0,0,0,-1.2231,-1.225,-1.2263,-1.2335,-1.2357,-1.2432,-1.2453,-1.2466,-1.2497,-1.2501,-1.2573,-1.2585,-1.2626,-1.2683,-1.2696,-1.2706,-1.2709,-1.2827,-1.2828,-1.2828,-1.2788,-1.2786,-1.2784,0,0,0,0,0,-1.2224,-1.2248,-1.2264,-1.2279,-1.2374,-1.2433,-1.2445,-1.2491,-1.2497,-1.2512,-1.2556,-1.2583,-1.2696,-1.2687,-1.2703,-1.2715,-1.2827,-1.2827,-1.2828,-1.2789,-1.2786,-1.2784,0,0,0,0,0,0,-1.2177,-1.2258,-1.2277,-1.2323,-1.237,-1.2442,-1.2462,-1.2487,-1.2535,-1.2537,-1.2592,-1.2608,-1.2655,-1.269,-1.2679,-1.2753,-1.2764,-1.2768,-1.2728,-1.2727,-1.2725,-1.2716,-1.2714,0,0,0,0,0,-1.2171,-1.2211,-1.228,-1.2315,-1.2337,-1.2395,-1.2422,-1.2453,-1.2505,-1.2526,-1.2574,-1.2624,-1.2671,-1.2701,-1.2748,-1.2793,-1.281,-1.2809,-1.2807,-1.2805,-1.2808,-1.2835,-1.2835,-1.2831,-1.2831,-1.2831,0,0,-1.2162,-1.2211,-1.2232,-1.2306,-1.2346,-1.2387,-1.2412,-1.2454,-1.2485,-1.2533,-1.2583,-1.262,-1.268,-1.2728,-1.2752,-1.2759,-1.2813,-1.2806,-1.2804,-1.2808,-1.2836,-1.2836,-1.2836,-1.2831,-1.2831,-1.2831,0,0,-1.2164,-1.2205,-1.2238,-1.2277,-1.2337,-1.2376,-1.2383,-1.2451,-1.2477,-1.2529,-1.2566,-1.2604,-1.2683,-1.2724,-1.2756,-1.2772,-1.2799,-1.2786,-1.2777,-1.2803,-1.2803,-1.2804,-1.281,-1.2812,-1.2789,-1.2789,-1.2789,0,-1.2145,-1.2206,-1.2252,-1.2292,-1.2324,-1.2367,-1.2402,-1.2438,-1.2511,-1.2532,-1.2539,-1.2639,-1.2683,-1.2741,-1.2745,-1.2769,-1.278,-1.2779,-1.2799,-1.28,-1.2801,-1.2808,-1.281,-1.2787,-1.2787,-1.2787,-1.2787,0,-1.2179,-1.2221,-1.2241,-1.2308,-1.2342,-1.2379,-1.2432,-1.2461,-1.2489,-1.2527,-1.2579,-1.2632,-1.2691,-1.2707,-1.2735,-1.2769,-1.2772,-1.2788,-1.28,-1.2799,-1.2807,-1.2809,-1.2784,-1.2785,-1.2785,-1.2786,0,0,-1.2156,-1.2248,-1.2254,-1.2286,-1.2354,-1.2389,-1.2428,-1.2483,-1.2507,-1.2556,-1.2591,-1.2656,-1.2671,-1.2707,-1.274,-1.2762,-1.2772,-1.2776,-1.2778,-1.2774,-1.2814,-1.2802,-1.2804,-1.279,-1.2791,-1.2791,-1.2809,0,-1.2169,-1.2239,-1.2282,-1.2336,-1.2376,-1.2417,-1.2451,-1.2498,-1.2534,-1.2574,-1.2614,-1.266,-1.2676,-1.2698,-1.2722,-1.2766,-1.2781,-1.2765,-1.2824,-1.2826,-1.2808,-1.2808,-1.2796,-1.281,-1.2813,-1.2813,-1.2813,0,-1.2193,-1.2239,-1.2296,-1.236,-1.2379,-1.2408,-1.2463,-1.25,-1.2554,-1.2579,-1.2617,-1.265,-1.2694,-1.2701,-1.2763,-1.2751,-1.2778,-1.2803,-1.2805,-1.2813,-1.282,-1.2817,-1.2816,-1.2818,-1.2818,-1.2818,-1.2818,0,-1.2171,-1.2247,-1.2291,-1.2317,-1.2392,-1.2412,-1.2445,-1.2499,-1.2529,-1.2577,-1.2598,-1.2651,-1.268,-1.272,-1.2767,-1.2768,-1.2824,-1.2835,-1.2847,-1.2846,-1.2858,-1.2857,-1.2862,-1.2873,-1.2873,-1.2873,-1.2873,0,-1.2181,-1.2215,-1.2282,-1.231,-1.2349,-1.2398,-1.2435,-1.2472,-1.2519,-1.2555,-1.2594,-1.2627,-1.2686,-1.2727,-1.2764,-1.2809,-1.2822,-1.2844,-1.2854,-1.2841,-1.2838,-1.286,-1.286,-1.2874,-1.2874,-1.2874,-1.2874,0,-1.2163,-1.221,-1.2261,-1.2328,-1.2345,-1.2371,-1.2429,-1.2458,-1.2495,-1.254,-1.2554,-1.2614,-1.2663,-1.2713,-1.2781,-1.2806,-1.2851,-1.2864,-1.2832,-1.2838,-1.2847,-1.2845,-1.2867,-1.2872,-1.2879,-1.2879,-1.2879,0,-1.2167,-1.2193,-1.2263,-1.2289,-1.232,-1.2362,-1.2393,-1.2442,-1.2473,-1.2536,-1.2557,-1.2609,-1.2654,-1.2731,-1.2782,-1.2834,-1.2848,-1.2852,-1.2856,-1.2843,-1.2849,-1.2847,-1.285,-1.2851,-1.285,-1.285,-1.285,0,-1.2168,-1.219,-1.2232,-1.2283,-1.2318,-1.2361,-1.2405,-1.2425,-1.2483,-1.2516,-1.2566,-1.26,-1.2669,-1.272,-1.2778,-1.2813,-1.2842,-1.2848,-1.2853,-1.2841,-1.2822,-1.2833,-1.2828,-1.2847,-1.2848,-1.2848,-1.2848,-1.2848,-1.2162,-1.2188,-1.224,-1.2286,-1.2324,-1.2364,-1.2394,-1.2435,-1.2477,-1.2536,-1.2563,-1.2613,-1.2667,-1.2747,-1.2781,-1.2823,-1.283,-1.2838,-1.284,-1.2842,-1.2839,-1.2814,-1.2833,-1.2833,-1.2834,-1.2834,-1.2834,0,-1.2166,-1.2202,-1.2243,-1.2303,-1.2339,-1.2361,-1.2411,-1.244,-1.2484,-1.2531,-1.2573,-1.2631,-1.2681,-1.2735,-1.2789,-1.2811,-1.2826,-1.2824,-1.2823,-1.2831,-1.2829,-1.2819,-1.2811,-1.2811,-1.2811,-1.2811,-1.2811,-1.2811,-1.2173,-1.2217,-1.2244,-1.2308,-1.2344,-1.2393,-1.2419,-1.2457,-1.2494,-1.2557,-1.2598,-1.2632,-1.2682,-1.2739,-1.2787,-1.2801,-1.282,-1.2814,-1.2832,-1.2829,-1.2831,-1.2833,-1.2824,-1.2817,-1.2817,-1.2831,-1.2832,-1.2832]},{"header":{"parameterUnit":"m.s-1","parameterCategory":1,"la1":30.2991,"la2":30.254,"lo1":-89.0895,"lo2":-89.0444,"dy":0.0017,"dx":0.0017,"nx":28,"ny":28,"refTime":"2025-07-25T21:00:00:Z","depth":0,"parameterNumber":3,"parameterNumberName":"V-component_of_WINDS"},"data":[0,0,0,0,0,0,0,0,0,0,0,0,0,0,0,0,0,0,0,0,0,0,0,0,0,0,0,0,0,0,0,0,0,0,0,0,0,0,0,0,0,0,0,0,0,0,0,0,0,0,0,0,0,0,0,0,0,0,7.3386,7.3387,0,7.3394,7.3394,7.3394,7.3289,7.3286,7.3283,7.3281,7.3287,7.329,7.3292,0,0,0,0,0,0,0,0,0,0,0,0,0,7.3279,7.3282,7.3386,7.3387,7.3387,7.3394,7.3394,7.3394,7.3289,7.3286,7.3283,7.3279,7.3286,7.3289,7.3293,0,0,0,0,0,0,0,0,0,0,0,0,0,7.331,7.3283,7.3386,7.3335,7.3331,7.3394,7.3394,7.3394,7.329,7.3286,7.3282,7.3278,7.3285,7.3289,7.3293,7.3405,0,0,7.3306,7.3308,0,0,0,0,0,0,0,0,7.3309,7.3314,7.3343,7.3339,7.3334,7.3336,7.3358,7.3398,7.3291,7.3306,7.3281,7.3276,7.3307,7.3309,7.332,7.3405,7.3406,7.3307,7.3309,7.3311,7.3312,0,0,0,0,0,0,0,7.3307,7.3313,7.3389,7.3343,7.3338,7.3311,7.3311,7.3365,7.333,7.3304,7.3296,7.3299,7.3303,7.3316,7.3319,7.3406,7.3306,7.331,7.3313,7.3314,7.3581,7.3586,0,0,0,0,0,0,7.3312,7.3312,7.3389,7.3389,7.3311,7.3317,7.3316,7.334,7.3329,7.3323,7.3302,7.3294,7.3311,7.3314,7.3319,7.3447,7.3311,7.3315,7.3317,7.3577,7.3582,7.3587,0,0,0,0,0,0,7.331,7.332,7.3389,7.3349,7.3356,7.3323,7.335,7.3342,7.3354,7.3328,7.3321,7.3322,7.3307,7.3313,7.3384,7.3446,7.3317,7.3321,7.3571,7.3578,7.3585,7.3706,0,0,0,0,0,0,7.3307,7.332,7.3362,7.3351,7.3358,7.3455,7.3354,7.3345,7.3362,7.3351,7.3344,7.3339,7.3304,7.3378,7.3388,7.3449,7.3324,7.3566,7.3575,7.3583,7.3696,7.3716,7.3733,0,0,0,0,0,7.3304,7.3396,7.3365,7.3375,7.3411,7.3459,7.3463,7.3422,7.3368,7.3409,7.3392,7.3339,7.3438,7.3386,7.3397,7.346,7.3561,7.3572,7.3582,7.3688,7.3712,7.3732,0,0,0,0,0,0,7.3416,7.3394,7.3359,7.3451,7.3457,7.3441,7.3492,7.3449,7.3471,7.3459,7.3407,7.3406,7.3486,7.348,7.3423,7.3567,7.349,7.3503,7.3567,7.359,7.3608,7.3606,7.3328,0,0,0,0,0,7.3451,7.3492,7.3471,7.3554,7.3559,7.3526,7.3545,7.3512,7.3517,7.3519,7.3507,7.3513,7.3545,7.3568,7.3596,7.3695,7.3691,7.3744,7.3762,7.3778,7.3788,7.3838,7.3861,7.3621,7.3621,7.362,0,0,7.3525,7.3518,7.3547,7.3576,7.3577,7.362,7.3528,7.3578,7.3608,7.3526,7.3592,7.3584,7.3587,7.3673,7.371,7.367,7.3854,7.3791,7.3803,7.3805,7.3851,7.3874,7.3894,7.3628,7.3626,7.3625,0,0,7.3679,7.368,7.3747,7.3751,7.3754,7.3731,7.3747,7.3738,7.3729,7.3794,7.3733,7.3769,7.3826,7.383,7.384,7.3996,7.3947,7.4007,7.4102,7.4151,7.417,7.4187,7.424,7.426,7.4018,7.4019,7.4019,0,7.377,7.3832,7.3788,7.3841,7.3854,7.3783,7.385,7.3855,7.3868,7.3878,7.3835,7.3904,7.3901,7.3985,7.4023,7.4035,7.405,7.4006,7.4171,7.4187,7.4202,7.4252,7.4273,7.4026,7.4025,7.4024,7.4023,0,7.3942,7.3986,7.404,7.4054,7.4074,7.4134,7.4098,7.4123,7.409,7.4071,7.4138,7.4133,7.4157,7.4176,7.4143,7.4255,7.423,7.418,7.4102,7.4233,7.4279,7.4298,7.4036,7.4033,7.4031,7.4029,0,0,7.4166,7.4154,7.4175,7.4179,7.4177,7.421,7.4266,7.4291,7.4313,7.4324,7.4369,7.4419,7.4372,7.4383,7.4351,7.4394,7.4516,7.4338,7.4337,7.4369,7.4636,7.4672,7.4695,7.4484,7.4488,7.4491,7.4634,0,7.4315,7.441,7.4371,7.447,7.4509,7.4441,7.449,7.4494,7.4478,7.4509,7.4491,7.4526,7.4463,7.4469,7.451,7.4492,7.4568,7.4482,7.4523,7.4525,7.4522,7.4719,7.4758,7.4894,7.4653,7.4656,7.4658,0,7.45,7.4519,7.4621,7.461,7.4625,7.467,7.4688,7.4719,7.4721,7.4707,7.4719,7.4677,7.473,7.4655,7.4727,7.4669,7.4684,7.4678,7.4682,7.4682,7.4598,7.4722,7.4936,7.4956,7.4686,7.4684,7.4682,0,7.4651,7.4701,7.4768,7.4774,7.4764,7.4797,7.4794,7.4793,7.481,7.4826,7.4836,7.4859,7.4871,7.4889,7.4854,7.4802,7.493,7.4852,7.4918,7.4919,7.4946,7.4944,7.5163,7.4961,7.4961,7.496,7.496,0,7.4819,7.4883,7.4835,7.4876,7.4946,7.4901,7.4971,7.4961,7.496,7.4997,7.4941,7.4977,7.493,7.4961,7.4934,7.4996,7.5003,7.4992,7.4983,7.4995,7.4996,7.5002,7.4991,7.4966,7.4964,7.4963,7.4962,0,7.4997,7.4968,7.5036,7.5021,7.5019,7.5071,7.5058,7.5094,7.5075,7.5123,7.5131,7.5101,7.5135,7.5102,7.5134,7.5116,7.5199,7.5178,7.5198,7.5191,7.5258,7.5252,7.5486,7.5514,7.5297,7.5299,7.5301,0,7.5105,7.5153,7.5143,7.5164,7.5165,7.52,7.5216,7.5174,7.5193,7.5199,7.5235,7.5264,7.5285,7.5342,7.5322,7.5346,7.5324,7.5405,7.5327,7.5337,7.5322,7.5319,7.5322,7.542,7.5422,7.5424,7.5426,0,7.5299,7.5282,7.5308,7.5329,7.535,7.5365,7.5375,7.5395,7.5351,7.5376,7.541,7.5426,7.5458,7.5487,7.5505,7.5502,7.5457,7.5451,7.5467,7.5479,7.5487,7.5481,7.5238,7.5445,7.5443,7.5442,7.5441,7.544,7.5444,7.5482,7.5481,7.5512,7.5515,7.5525,7.5558,7.5543,7.5571,7.5593,7.5567,7.5608,7.5608,7.5627,7.5629,7.566,7.5626,7.565,7.5656,7.5662,7.567,7.5485,7.5664,7.5663,7.5663,7.5662,7.5662,0,7.5633,7.5628,7.5657,7.5672,7.5696,7.5652,7.5661,7.5683,7.572,7.5724,7.5746,7.5784,7.5811,7.5794,7.5818,7.5846,7.5825,7.5853,7.5849,7.5849,7.5701,7.5683,7.5869,7.5869,7.5869,7.5869,7.5869,7.5869,7.5733,7.5795,7.5778,7.5841,7.5836,7.5875,7.5883,7.5892,7.5895,7.594,7.5963,7.5951,7.5947,7.5969,7.5992,7.5987,7.5997,7.6031,7.6018,7.588,7.5859,7.584,7.5823,7.6035,7.6035,7.6163,7.6164,7.6165]}]]